CW6538 Cattolica IT current weather conditions

sailwx.info

Wind from 244 at 5 knots gusting 9

Air temperature 12.2° C
Dewpoint 7.5° C

Last reported at 2014-Oct-26 06:49 UTC.
Time now 2014-Oct-26 07:07 UTC

Location: N 43°58' E 012°44'.
View on Google Maps.

See reports from other nearby stations

  
Tides and Currents Weather Stations Pressure Air Temp Water Temp Dewpoint Dewpoint Depression Visibility Wind Speed Wind Dir Waves Ship Positions
date/time (UTC)wind fromknots sea level pressurealtimeterstation pressurevisibilityair tempwater tempwave heightnotes
2014-Oct-26 06:49 244 5 gusting 9 12.2
2014-Oct-26 06:44 290 3 gusting 7 12.2
2014-Oct-26 06:39 292 4 gusting 8 12.2
2014-Oct-26 06:34 275 3 gusting 8 12.2
2014-Oct-26 06:29 269 4 gusting 8 12.2
2014-Oct-26 06:24 279 2 gusting 8 12.2
2014-Oct-26 06:19 280 1 gusting 8 12.2
2014-Oct-26 06:14 279 6 gusting 9 12.2
2014-Oct-26 06:09 263 6 gusting 9 12.2
2014-Oct-26 06:04 298 5 gusting 8 12.2
2014-Oct-26 05:54 277 5 gusting 9 12.2
2014-Oct-26 05:49 279 3 gusting 7 12.2
2014-Oct-26 05:44 340 6 gusting 7 12.2
2014-Oct-26 05:39 283 4 gusting 7 12.2
2014-Oct-26 05:34 321 4 gusting 7 12.2
2014-Oct-26 05:28 331 5 gusting 7 12.2
2014-Oct-26 05:24 273 3 gusting 7 12.2
2014-Oct-26 05:14 287 5 gusting 7 12.2
2014-Oct-26 05:09 284 5 gusting 9 12.2
2014-Oct-26 04:58 300 5 gusting 9 12.2
2014-Oct-26 04:54 323 4 gusting 10 12.2
2014-Oct-26 04:49 296 6 gusting 11 12.2
2014-Oct-26 04:44 279 6 gusting 11 12.2
2014-Oct-26 04:39 270 7 gusting 10 12.2
2014-Oct-26 04:34 288 6 gusting 10 12.2
2014-Oct-26 04:29 269 6 gusting 10 12.2
2014-Oct-26 04:24 294 5 gusting 12 12.2
2014-Oct-26 04:19 282 6 gusting 12 12.2
2014-Oct-26 04:14 305 6 gusting 10 12.2
2014-Oct-26 04:09 315 5 gusting 10 12.2
2014-Oct-26 04:04 301 6 gusting 10 12.2
2014-Oct-26 03:59 313 3 gusting 9 12.2
2014-Oct-26 03:54 293 5 gusting 9 12.2
2014-Oct-26 03:49 299 5 gusting 9 12.8
2014-Oct-26 03:44 292 4 gusting 10 12.8
2014-Oct-26 03:39 275 6 gusting 11 12.8
2014-Oct-26 03:34 287 6 gusting 11 12.8
2014-Oct-26 03:29 303 6 gusting 10 12.8
2014-Oct-26 03:24 296 5 gusting 9 12.8
2014-Oct-26 03:19 261 4 gusting 9 12.8
2014-Oct-26 03:14 316 6 gusting 12 12.8
2014-Oct-26 03:09 266 5 gusting 13 12.8
2014-Oct-26 03:04 297 6 gusting 13 12.8
2014-Oct-26 02:59 283 6 gusting 10 12.8
2014-Oct-26 02:54 311 3 gusting 10 12.8
2014-Oct-26 02:49 319 6 gusting 10 12.8
2014-Oct-26 02:44 263 5 gusting 8 12.8
2014-Oct-26 02:39 290 6 gusting 8 12.8
2014-Oct-26 02:34 273 1 gusting 9 12.8
2014-Oct-26 02:29 283 6 gusting 9 12.8
2014-Oct-26 02:24 287 5 gusting 8 12.8
2014-Oct-26 02:19 294 4 gusting 8 12.8
2014-Oct-26 02:14 270 5 gusting 10 12.8
2014-Oct-26 02:09 291 4 gusting 9 12.8
2014-Oct-26 02:04 282 3 gusting 6 12.8
2014-Oct-26 01:59 263 1 gusting 8 12.8
2014-Oct-26 01:54 269 4 gusting 8 12.8
2014-Oct-26 01:49 283 6 gusting 8 12.8
2014-Oct-26 01:44 298 3 gusting 8 12.8
2014-Oct-26 01:39 288 3 gusting 8 12.8
2014-Oct-26 01:34 286 4 gusting 7 12.8
2014-Oct-26 01:29 272 3 gusting 6 12.8
2014-Oct-26 01:24 264 4 gusting 6 12.8
2014-Oct-26 01:19 289 4 gusting 8 12.8
2014-Oct-26 01:14 292 4 gusting 8 12.8
2014-Oct-26 01:09 260 5 gusting 7 12.8
2014-Oct-26 01:04 280 3 gusting 7 12.8
2014-Oct-26 00:59 290 3 gusting 7 12.8
2014-Oct-26 00:49 275 4 gusting 7 12.8
2014-Oct-26 00:44 335 1 gusting 7 12.8
2014-Oct-26 00:39 263 3 gusting 8 12.8
2014-Oct-26 00:34 279 3 gusting 9 12.8
2014-Oct-26 00:29 279 5 gusting 9 12.8
2014-Oct-26 00:24 308 3 gusting 8 12.8
2014-Oct-26 00:19 302 2 gusting 7 12.8
2014-Oct-26 00:14 300 3 gusting 6 12.8
2014-Oct-26 00:09 277 3 gusting 7 13.3
2014-Oct-26 00:04 300 5 gusting 7 13.3
2014-Oct-25 23:59 277 4 gusting 7 13.3
2014-Oct-25 23:54 282 3 gusting 6 13.3
2014-Oct-25 23:49 253 3 gusting 6 13.3
2014-Oct-25 23:44 286 3 gusting 6 13.3
2014-Oct-25 23:39 285 2 gusting 9 13.3
2014-Oct-25 23:34 336 3 gusting 9 13.3
2014-Oct-25 23:29 303 4 gusting 8 13.3
2014-Oct-25 23:24 300 3 gusting 8 13.3
2014-Oct-25 23:14 300 3 gusting 9 13.3
2014-Oct-25 23:09 284 5 gusting 10 13.3
2014-Oct-25 23:04 298 4 gusting 10 13.9
2014-Oct-25 22:59 299 6 gusting 10 13.9
2014-Oct-25 22:54 319 4 gusting 9 13.9
2014-Oct-25 22:49 288 6 gusting 9 13.9
2014-Oct-25 22:44 276 5 gusting 9 13.9
2014-Oct-25 22:39 265 6 gusting 9 13.9
2014-Oct-25 22:34 298 5 gusting 9 13.9
2014-Oct-25 22:29 307 3 gusting 8 13.9
2014-Oct-25 22:24 283 3 gusting 8 13.3
2014-Oct-25 22:19 279 5 gusting 8 13.3
2014-Oct-25 22:14 298 5 gusting 7 13.3
2014-Oct-25 22:09 273 5 gusting 6 13.3
2014-Oct-25 22:04 260 3 gusting 6 13.3
2014-Oct-25 21:59 271 2 gusting 6 13.3
2014-Oct-25 21:54 294 1 gusting 5 13.3
2014-Oct-25 21:49 271 0 gusting 5 13.3
2014-Oct-25 21:44 271 2 gusting 5 13.3
2014-Oct-25 21:39 239 0 gusting 4 13.3
2014-Oct-25 21:34 239 1 gusting 5 13.3
2014-Oct-25 21:29 246 3 gusting 5 13.3
2014-Oct-25 21:24 246 13.3
2014-Oct-25 21:19 246 13.3
2014-Oct-25 21:14 252 1 gusting 5 13.3
2014-Oct-25 21:04 226 13.3
2014-Oct-25 20:59 226 0 gusting 2 13.3
2014-Oct-25 20:54 226 13.3
2014-Oct-25 20:49 226 13.3
2014-Oct-25 20:44 226 3 gusting 4 13.3
2014-Oct-25 20:39 226 13.3
2014-Oct-25 20:34 226 0 gusting 4 13.3
2014-Oct-25 20:29 227 0 gusting 4 13.3
2014-Oct-25 20:24 229 0 gusting 4 13.3
2014-Oct-25 20:19 229 0 gusting 4 13.3
2014-Oct-25 20:14 229 0 gusting 1 13.9
2014-Oct-25 20:09 229 13.9
2014-Oct-25 20:04 229 2 gusting 5 13.9
2014-Oct-25 19:59 229 4 gusting 6 13.9
2014-Oct-25 19:54 215 2 gusting 6 13.9
2014-Oct-25 19:49 232 3 gusting 5 14.4
2014-Oct-25 19:44 208 1 gusting 4 15.0
2014-Oct-25 19:39 208 2 gusting 4 15.0
2014-Oct-25 19:29 005 2 gusting 5 15.6
2014-Oct-25 19:19 010 3 gusting 9 15.6
2014-Oct-25 19:14 017 2 gusting 6 15.6
2014-Oct-25 19:09 005 3 gusting 6 15.6
2014-Oct-25 19:04 021 3 gusting 6 15.0
2014-Oct-25 18:59 011 3 gusting 9 15.0
2014-Oct-25 18:54 005 6 gusting 9 15.0
2014-Oct-25 18:49 009 6 gusting 9 15.0
2014-Oct-25 18:44 023 5 gusting 9 15.0
2014-Oct-25 18:39 013 3 gusting 9 15.0
2014-Oct-25 18:34 355 6 gusting 9 15.0
2014-Oct-25 18:29 355 4 gusting 8 15.0
2014-Oct-25 18:24 036 6 gusting 8 15.0
2014-Oct-25 18:14 341 3 gusting 7 15.0
2014-Oct-25 18:09 005 3 gusting 8 15.0
2014-Oct-25 18:04 009 5 gusting 8 15.0
2014-Oct-25 17:59 017 5 gusting 7 15.0
2014-Oct-25 17:54 012 2 gusting 10 15.0
2014-Oct-25 17:49 355 6 gusting 10 15.0
2014-Oct-25 17:44 036 4 gusting 8 15.0
2014-Oct-25 17:39 015 5 gusting 7 15.0
2014-Oct-25 17:34 035 3 gusting 10 15.0
2014-Oct-25 17:29 010 6 gusting 10 15.0
2014-Oct-25 17:24 036 4 gusting 10 15.0
2014-Oct-25 17:19 044 5 gusting 10 15.0
2014-Oct-25 17:14 039 6 gusting 9 15.0
2014-Oct-25 17:09 038 3 gusting 8 15.0
2014-Oct-25 17:04 019 4 gusting 8 15.0
2014-Oct-25 16:59 005 5 gusting 10 15.0
2014-Oct-25 16:54 019 4 gusting 10 15.0
2014-Oct-25 16:49 036 4 gusting 7 15.0
2014-Oct-25 16:44 028 4 gusting 7 15.0
2014-Oct-25 16:39 026 5 gusting 7 15.0
2014-Oct-25 16:34 009 4 gusting 7 15.0
2014-Oct-25 16:29 044 3 gusting 7 15.0
2014-Oct-25 16:24 040 3 gusting 9 15.0
2014-Oct-25 16:19 039 6 gusting 11 15.0
2014-Oct-25 16:14 032 6 gusting 11 15.6
2014-Oct-25 16:09 049 6 gusting 10 15.6
2014-Oct-25 16:04 043 4 gusting 11 15.6
2014-Oct-25 15:54 040 5 gusting 10 15.6
2014-Oct-25 15:44 029 5 gusting 8 16.1
2014-Oct-25 15:39 026 3 gusting 12 16.1
2014-Oct-25 15:34 042 6 gusting 12 16.1
2014-Oct-25 15:29 012 6 gusting 8 16.1
2014-Oct-25 15:24 038 6 gusting 8 16.1
2014-Oct-25 15:19 355 3 gusting 10 16.1
2014-Oct-25 15:14 347 7 gusting 10 16.1
2014-Oct-25 15:09 064 4 gusting 9 16.1
2014-Oct-25 15:04 349 6 gusting 9 16.1
2014-Oct-25 14:59 013 6 gusting 9 16.1
2014-Oct-25 14:54 355 5 gusting 10 16.1
2014-Oct-25 14:49 028 7 gusting 10 16.7
2014-Oct-25 14:44 011 4 gusting 8 16.7
2014-Oct-25 14:34 005 4 gusting 10 16.7
2014-Oct-25 14:29 013 4 gusting 8 16.7
2014-Oct-25 14:24 014 6 gusting 10 16.7
2014-Oct-25 14:19 005 7 gusting 10 16.7
2014-Oct-25 14:14 012 5 gusting 7 17.2
2014-Oct-25 14:09 351 5 gusting 8 16.7
2014-Oct-25 14:04 015 6 gusting 8 16.7
2014-Oct-25 13:59 030 5 gusting 9 17.2
2014-Oct-25 13:54 016 5 gusting 7 17.2
2014-Oct-25 13:49 041 3 gusting 8 16.7
2014-Oct-25 13:44 010 5 gusting 8 16.7
2014-Oct-25 13:39 009 4 gusting 8 16.7
2014-Oct-25 13:34 331 5 gusting 8 16.7
2014-Oct-25 13:29 009 5 gusting 9 16.7
2014-Oct-25 13:24 021 5 gusting 9 16.7
2014-Oct-25 13:19 360 2 gusting 8 16.7
2014-Oct-25 13:14 355 4 gusting 8 16.7
2014-Oct-25 13:09 013 2 gusting 8 16.7
2014-Oct-25 13:04 360 6 gusting 8 16.1
2014-Oct-25 12:59 344 4 gusting 6 16.1
2014-Oct-25 12:54 034 4 gusting 6 16.7
2014-Oct-25 12:49 344 4 gusting 9 16.7
2014-Oct-25 12:44 348 6 gusting 9 16.7
2014-Oct-25 12:39 014 4 gusting 8 16.7
2014-Oct-25 12:33 005 0 gusting 9 16.7
2014-Oct-25 12:29 324 6 gusting 9 16.7
2014-Oct-25 12:24 011 5 gusting 8 16.7
2014-Oct-25 12:19 348 5 gusting 9 16.7
2014-Oct-25 12:14 013 5 gusting 9 16.7
2014-Oct-25 12:09 026 3 gusting 9 16.7
2014-Oct-25 12:04 029 5 gusting 9 16.7
2014-Oct-25 11:59 341 6 gusting 9 16.7
2014-Oct-25 11:54 009 5 gusting 9 16.7
2014-Oct-25 11:49 355 6 gusting 9 16.1
2014-Oct-25 11:44 011 5 gusting 9 16.7
2014-Oct-25 11:39 360 4 gusting 9 16.7
2014-Oct-25 11:34 355 7 gusting 10 16.1
2014-Oct-25 11:29 040 6 gusting 11 16.7
2014-Oct-25 11:23 005 6 gusting 9 16.7
2014-Oct-25 11:19 027 5 gusting 10 16.7
2014-Oct-25 11:14 056 7 gusting 10 16.7
2014-Oct-25 11:09 005 6 gusting 10 16.7
2014-Oct-25 11:04 005 4 gusting 10 16.7
2014-Oct-25 10:49 360 8 gusting 13 16.1
2014-Oct-25 10:44 026 5 gusting 11 16.1
2014-Oct-25 10:39 053 7 gusting 11 16.1
2014-Oct-25 10:34 360 7 gusting 11 16.1
2014-Oct-25 10:29 328 4 gusting 11 16.7
2014-Oct-25 10:24 005 7 gusting 11 16.7
2014-Oct-25 10:19 012 6 gusting 9 16.7
2014-Oct-25 10:14 011 6 gusting 10 16.7
2014-Oct-25 10:09 030 5 gusting 10 16.7
2014-Oct-25 10:04 005 6 gusting 12 16.7
2014-Oct-25 09:59 013 8 gusting 12 17.2
2014-Oct-25 09:54 011 6 gusting 12 16.7
2014-Oct-25 09:49 360 6 gusting 11 16.7
2014-Oct-25 09:44 333 7 gusting 12 16.7
2014-Oct-25 09:39 015 8 gusting 12 16.7
2014-Oct-25 09:34 024 6 gusting 12 16.1
2014-Oct-25 09:29 038 6 gusting 10 16.1
2014-Oct-25 09:24 355 7 gusting 10 16.7
2014-Oct-25 09:19 005 6 gusting 10 16.1
2014-Oct-25 09:14 010 6 gusting 12 15.6
2014-Oct-25 09:09 017 6 gusting 10 15.6
2014-Oct-25 09:04 012 4 gusting 10 15.6
2014-Oct-25 08:59 031 6 gusting 10 15.6
2014-Oct-25 08:49 055 6 gusting 11 16.1
2014-Oct-25 08:44 062 6 gusting 9 16.1
2014-Oct-25 08:39 360 5 gusting 12 16.7
2014-Oct-25 08:34 032 7 gusting 12 16.1
2014-Oct-25 08:29 059 5 gusting 11 16.1
2014-Oct-25 08:24 005 5 gusting 11 16.1
2014-Oct-25 08:19 024 8 gusting 15 16.1
2014-Oct-25 08:14 041 8 gusting 15 16.1
2014-Oct-25 08:09 031 8 gusting 15 15.6
2014-Oct-25 08:04 037 7 gusting 13 15.6
2014-Oct-25 07:59 032 7 gusting 13 15.6
2014-Oct-25 07:54 068 6 gusting 13 15.0
2014-Oct-25 07:49 038 7 gusting 15 15.0
2014-Oct-25 07:39 017 6 gusting 11 15.0
2014-Oct-25 07:34 029 5 gusting 13 15.6
2014-Oct-25 07:29 015 8 gusting 13 15.6
2014-Oct-25 07:24 013 6 gusting 12 15.0
2014-Oct-25 07:18 338 5 gusting 12 15.0
2014-Oct-25 07:14 024 6 gusting 12 15.0
2014-Oct-25 07:09 045 6 gusting 12 15.0
2014-Oct-25 07:04 013 5 gusting 12 15.0
2014-Oct-25 06:59 005 8 gusting 12 15.0
2014-Oct-25 06:54 032 6 gusting 13 15.0
2014-Oct-25 06:49 022 6 gusting 12 15.0
2014-Oct-25 06:44 015 6 gusting 11 15.0
2014-Oct-25 06:39 014 5 gusting 13 15.0
2014-Oct-25 06:34 046 7 gusting 13 15.0
2014-Oct-25 06:29 005 6 gusting 11 15.0
2014-Oct-25 06:24 011 6 gusting 10 15.0
2014-Oct-25 06:19 350 6 gusting 10 15.0
2014-Oct-25 06:14 342 5 gusting 8 15.0
2014-Oct-25 06:09 012 6 gusting 9 14.4
2014-Oct-25 05:59 342 5 gusting 10 14.4
2014-Oct-25 05:54 355 5 gusting 10 14.4
2014-Oct-25 05:49 350 5 gusting 13 14.4
2014-Oct-25 05:44 360 6 gusting 13 14.4
2014-Oct-25 05:39 022 7 gusting 13 14.4
2014-Oct-25 05:34 005 6 gusting 12 14.4
2014-Oct-25 05:29 014 6 gusting 11 14.4
2014-Oct-25 05:24 043 6 gusting 11 14.4
2014-Oct-25 05:19 043 6 gusting 10 14.4
2014-Oct-25 05:14 024 6 gusting 10 14.4
2014-Oct-25 05:09 355 6 gusting 12 14.4
2014-Oct-25 05:04 355 8 gusting 12 14.4
2014-Oct-25 04:59 360 6 gusting 11 14.4
2014-Oct-25 04:54 055 6 gusting 10 14.4
2014-Oct-25 04:48 035 6 gusting 11 14.4
2014-Oct-25 04:44 027 5 gusting 11 14.4
2014-Oct-25 04:39 029 6 gusting 11 14.4
2014-Oct-25 04:34 054 6 gusting 11 14.4
2014-Oct-25 04:29 005 4 gusting 10 14.4
2014-Oct-25 04:19 014 6 gusting 10 14.4
2014-Oct-25 04:14 360 5 gusting 10 14.4
2014-Oct-25 04:09 009 3 gusting 16 14.4
2014-Oct-25 04:04 041 10 gusting 16 14.4
2014-Oct-25 03:59 036 4 gusting 11 14.4
2014-Oct-25 03:54 046 6 gusting 11 14.4
2014-Oct-25 03:49 046 6 gusting 10 14.4
2014-Oct-25 03:44 005 5 gusting 7 14.4
2014-Oct-25 03:39 023 5 gusting 7 14.4
2014-Oct-25 03:34 032 5 gusting 7 14.4
2014-Oct-25 03:29 035 5 gusting 10 14.4
2014-Oct-25 03:24 063 6 gusting 10 14.4
2014-Oct-25 03:19 020 6 gusting 12 14.4
2014-Oct-25 03:14 028 5 gusting 13 14.4
2014-Oct-25 03:09 024 6 gusting 11 14.4
2014-Oct-25 03:04 030 5 gusting 10 14.4
2014-Oct-25 02:59 035 6 gusting 10 14.4
2014-Oct-25 02:54 038 4 gusting 10 14.4
2014-Oct-25 02:49 010 6 gusting 10 14.4
2014-Oct-25 02:39 024 5 gusting 12 14.4
2014-Oct-25 02:34 009 5 gusting 11 14.4
2014-Oct-25 02:24 027 6 gusting 9 14.4
2014-Oct-25 02:19 044 6 gusting 10 14.4
2014-Oct-25 02:14 013 3 gusting 12 14.4
2014-Oct-25 02:09 053 6 gusting 12 14.4
2014-Oct-25 02:04 022 6 gusting 12 14.4
2014-Oct-25 01:59 055 6 gusting 12 14.4
2014-Oct-25 01:54 048 6 gusting 11 14.4
2014-Oct-25 01:49 005 6 gusting 12 14.4
2014-Oct-25 01:44 104 6 gusting 12 14.4
2014-Oct-25 01:39 065 6 gusting 12 14.4
2014-Oct-25 01:34 058 6 gusting 12 14.4
2014-Oct-25 01:24 077 8 gusting 13 14.4
2014-Oct-25 01:19 067 6 gusting 10 14.4
2014-Oct-25 01:14 058 6 gusting 11 14.4
2014-Oct-25 01:09 032 6 gusting 13 14.4
2014-Oct-25 01:04 053 8 gusting 13 14.4
2014-Oct-25 00:59 060 6 gusting 13 14.4
2014-Oct-25 00:54 061 7 gusting 13 14.4
2014-Oct-25 00:49 065 8 gusting 13 14.4
2014-Oct-25 00:44 013 7 gusting 15 15.0
2014-Oct-25 00:39 058 9 gusting 15 15.0
2014-Oct-25 00:34 037 6 gusting 13 15.0
2014-Oct-25 00:29 059 7 gusting 12 15.0
2014-Oct-25 00:24 059 5 gusting 10 15.0
2014-Oct-25 00:19 058 6 gusting 12 15.0
2014-Oct-25 00:14 103 7 gusting 13 15.0
2014-Oct-25 00:09 064 7 gusting 15 15.0
2014-Oct-25 00:04 076 5 gusting 12 15.0
2014-Oct-24 23:59 053 7 gusting 12 15.0
2014-Oct-24 23:54 043 6 gusting 11 15.0
2014-Oct-24 23:49 042 7 gusting 11 15.0
2014-Oct-24 23:43 033 4 gusting 8 15.0
2014-Oct-24 23:39 059 4 gusting 8 15.0
2014-Oct-24 23:34 037 5 gusting 12 15.0
2014-Oct-24 23:29 040 6 gusting 13 15.0
2014-Oct-24 23:24 032 6 gusting 17 15.0
2014-Oct-24 23:19 057 6 gusting 17 15.0
2014-Oct-24 23:14 043 8 gusting 16 15.0
2014-Oct-24 23:09 071 11 gusting 17 15.0
2014-Oct-24 23:04 036 8 gusting 19 15.0
2014-Oct-24 22:59 059 12 gusting 19 15.0
2014-Oct-24 22:54 072 10 gusting 17 15.0
2014-Oct-24 22:49 082 8 gusting 17 15.0
2014-Oct-24 22:44 064 8 gusting 17 15.0
2014-Oct-24 22:39 065 6 gusting 18 15.0
2014-Oct-24 22:34 046 11 gusting 18 15.0
2014-Oct-24 22:29 073 9 gusting 17 15.0
2014-Oct-24 22:24 059 8 gusting 17 15.0
2014-Oct-24 22:19 041 9 gusting 17 15.0
2014-Oct-24 22:14 034 7 gusting 13 15.0
2014-Oct-24 22:09 040 6 gusting 13 15.0
2014-Oct-24 22:05 031 6 gusting 13 15.0
2014-Oct-24 21:59 059 6 gusting 13 15.0
2014-Oct-24 21:54 045 5 gusting 12 15.0
2014-Oct-24 21:49 102 6 gusting 13 15.0
2014-Oct-24 21:44 063 3 gusting 13 15.0
2014-Oct-24 21:39 088 5 gusting 13 15.0
2014-Oct-24 21:34 059 4 gusting 17 15.0
2014-Oct-24 21:29 078 7 gusting 15 15.0
2014-Oct-24 21:24 098 5 gusting 15 15.0
2014-Oct-24 21:19 009 7 gusting 19 15.0
2014-Oct-24 21:14 087 8 gusting 19 15.0
2014-Oct-24 21:09 094 5 gusting 12 15.0
2014-Oct-24 21:04 056 7 gusting 13 15.0
2014-Oct-24 20:54 092 5 gusting 12 15.0
2014-Oct-24 20:48 051 7 gusting 13 15.0
2014-Oct-24 20:44 030 8 gusting 15 15.0
2014-Oct-24 20:39 070 7 gusting 15 15.0
2014-Oct-24 20:34 055 4 gusting 11 15.0
2014-Oct-24 20:19 080 6 gusting 13 15.0
2014-Oct-24 20:14 069 6 gusting 11 15.0
2014-Oct-24 20:09 071 6 gusting 11 15.0
2014-Oct-24 20:04 069 4 gusting 10 15.0
2014-Oct-24 19:59 055 6 gusting 13 15.0
2014-Oct-24 19:54 088 5 gusting 13 15.0
2014-Oct-24 19:49 067 6 gusting 9 15.0
2014-Oct-24 19:44 103 6 gusting 10 15.0
2014-Oct-24 19:39 071 4 gusting 10 15.0
2014-Oct-24 19:34 022 6 gusting 13 15.0
2014-Oct-24 19:29 060 7 gusting 13 15.0
2014-Oct-24 19:24 048 9 gusting 13 15.0
2014-Oct-24 19:19 088 4 gusting 6 15.0
2014-Oct-24 19:14 069 4 gusting 8 15.0
2014-Oct-24 19:09 078 4 gusting 8 15.0
2014-Oct-24 19:04 115 5 gusting 8 15.0
2014-Oct-24 18:59 076 5 gusting 10 15.0
2014-Oct-24 18:54 109 5 gusting 15 15.6
2014-Oct-24 18:49 097 6 gusting 15 15.6
2014-Oct-24 18:44 105 5 gusting 9 15.6
2014-Oct-24 18:39 116 6 gusting 9 15.6
2014-Oct-24 18:29 117 4 gusting 8 15.6
2014-Oct-24 18:23 044 4 gusting 8 15.6
2014-Oct-24 18:19 115 6 gusting 10 15.6
2014-Oct-24 18:14 115 6 gusting 10 15.6
2014-Oct-24 18:09 067 5 gusting 12 15.6
2014-Oct-24 18:04 092 7 gusting 12 15.6
2014-Oct-24 17:54 068 5 gusting 9 15.6
2014-Oct-24 17:49 121 6 gusting 9 15.6
2014-Oct-24 17:44 089 6 gusting 12 15.6
2014-Oct-24 17:39 096 6 gusting 12 15.6
2014-Oct-24 17:34 098 3 gusting 9 15.6
2014-Oct-24 17:29 066 6 gusting 9 15.6
2014-Oct-24 17:24 076 5 gusting 8 15.6
2014-Oct-24 17:19 105 4 gusting 7 16.1
2014-Oct-24 17:14 105 2 gusting 8 16.1
2014-Oct-24 17:09 093 2 gusting 6 16.1
2014-Oct-24 17:04 078 3 gusting 6 16.1
2014-Oct-24 16:59 119 4 gusting 6 16.1
2014-Oct-24 16:54 066 4 gusting 6 16.1
2014-Oct-24 16:49 109 2 gusting 8 16.1
2014-Oct-24 16:44 085 6 gusting 8 16.1
2014-Oct-24 16:34 138 3 gusting 5 16.1
2014-Oct-24 16:29 098 3 gusting 8 16.1
2014-Oct-24 16:24 099 5 gusting 8 16.1
2014-Oct-24 16:19 095 3 gusting 6 16.1
2014-Oct-24 16:14 061 3 gusting 8 16.1
2014-Oct-24 16:09 103 4 gusting 8 16.1
2014-Oct-24 16:04 101 5 gusting 6 16.1
2014-Oct-24 15:59 090 6 gusting 7 16.7
2014-Oct-24 15:54 093 4 gusting 8 16.7
2014-Oct-24 15:49 115 3 gusting 8 16.7
2014-Oct-24 15:44 115 5 gusting 7 16.7
2014-Oct-24 15:39 088 5 gusting 7 16.7
2014-Oct-24 15:34 114 5 gusting 7 17.2
2014-Oct-24 15:24 098 1 gusting 7 17.2
2014-Oct-24 15:19 116 4 gusting 7 17.2
2014-Oct-24 15:14 084 3 gusting 7 17.2
2014-Oct-24 15:09 068 5 gusting 7 17.2
2014-Oct-24 15:04 107 4 gusting 8 17.8
2014-Oct-24 14:59 135 4 gusting 8 17.8
2014-Oct-24 14:54 023 2 gusting 6 17.8
2014-Oct-24 14:49 094 5 gusting 6 17.8
2014-Oct-24 14:44 066 3 gusting 9 17.8
2014-Oct-24 14:19 074 5 gusting 8 17.8
2014-Oct-24 14:14 073 5 gusting 8 18.3
2014-Oct-24 14:09 063 3 gusting 7 18.3
2014-Oct-24 14:04 083 4 gusting 8 18.3
2014-Oct-24 13:59 067 5 gusting 8 18.9
2014-Oct-24 13:54 067 4 gusting 7 18.9
2014-Oct-24 13:49 041 4 gusting 7 18.9
2014-Oct-24 13:44 076 5 gusting 7 18.9
2014-Oct-24 13:39 097 1 gusting 6 18.9
2014-Oct-24 13:34 115 2 gusting 7 18.9
2014-Oct-24 13:29 112 4 gusting 7 18.3
2014-Oct-24 13:19 091 4 gusting 6 18.3
2014-Oct-24 13:14 097 3 gusting 8 18.3
2014-Oct-24 13:09 005 3 gusting 8 18.3
2014-Oct-24 13:04 036 5 gusting 7 18.3
2014-Oct-24 12:59 009 3 gusting 7 18.3
2014-Oct-24 12:54 013 5 gusting 7 18.9
2014-Oct-24 12:49 326 3 gusting 6 19.4
2014-Oct-24 12:44 022 3 gusting 7 18.9
2014-Oct-24 12:39 026 5 gusting 7 18.9
2014-Oct-24 12:34 005 3 gusting 6 18.3
2014-Oct-24 12:29 332 4 gusting 6 18.3
2014-Oct-24 12:24 010 3 gusting 7 18.3
2014-Oct-24 12:19 329 3 gusting 8 17.8
2014-Oct-24 12:14 010 4 gusting 8 17.8
2014-Oct-24 12:09 311 5 gusting 6 17.8
2014-Oct-24 12:04 322 4 gusting 8 17.8
2014-Oct-24 11:59 312 5 gusting 8 17.8
2014-Oct-24 11:54 334 5 gusting 8 17.8
2014-Oct-24 11:49 350 5 gusting 9 17.2
2014-Oct-24 11:44 343 6 gusting 9 17.2
2014-Oct-24 11:39 350 5 gusting 7 17.2
2014-Oct-24 11:34 009 5 gusting 9 17.2
2014-Oct-24 11:29 355 4 gusting 7 17.2
2014-Oct-24 11:24 013 3 gusting 7 17.2
2014-Oct-24 11:19 005 4 gusting 9 17.2
2014-Oct-24 11:14 313 5 gusting 10 17.2
2014-Oct-24 11:09 310 5 gusting 10 17.2
2014-Oct-24 11:04 005 6 gusting 9 16.7
2014-Oct-24 10:59 294 6 gusting 10 16.7
2014-Oct-24 10:54 338 5 gusting 9 16.7
2014-Oct-24 10:49 311 7 gusting 12 16.7
2014-Oct-24 10:44 327 6 gusting 12 17.2
2014-Oct-24 10:39 337 6 gusting 11 16.7
2014-Oct-24 10:34 292 5 gusting 10 16.7
2014-Oct-24 10:29 355 6 gusting 11 16.7
2014-Oct-24 10:24 325 6 gusting 11 16.7
2014-Oct-24 10:19 298 6 gusting 10 16.7
2014-Oct-24 10:14 302 4 gusting 10 16.7
2014-Oct-24 10:09 304 6 gusting 10 16.7
2014-Oct-24 10:04 343 0 gusting 6 16.1
2014-Oct-24 09:59 279 1 gusting 6 15.6
2014-Oct-24 09:54 287 2 gusting 6 15.6
2014-Oct-24 09:49 261 15.6
2014-Oct-24 09:44 267 3 gusting 6 15.6
2014-Oct-24 09:39 248 0 gusting 5 15.0
2014-Oct-24 09:34 234 15.0
2014-Oct-24 09:29 234 1 gusting 5 15.0
2014-Oct-24 09:24 264 0 gusting 4 15.0
2014-Oct-24 09:19 206 14.4
2014-Oct-24 09:14 206 4 gusting 5 14.4
2014-Oct-24 09:09 218 14.4
2014-Oct-24 09:04 218 3 gusting 4 14.4
2014-Oct-24 08:59 261 0 gusting 4 14.4
2014-Oct-24 08:54 261 14.4
2014-Oct-24 08:49 261 0 gusting 6 14.4
2014-Oct-24 08:43 273 3 gusting 6 14.4
2014-Oct-24 08:39 296 2 gusting 6 13.9
2014-Oct-24 08:29 299 4 gusting 7 13.9
2014-Oct-24 08:23 264 4 gusting 7 13.9
2014-Oct-24 08:18 267 1 gusting 8 13.9
2014-Oct-24 08:14 293 4 gusting 10 13.9
2014-Oct-24 08:09 297 6 gusting 10 13.9
2014-Oct-24 08:03 296 4 gusting 7 13.9
2014-Oct-24 07:59 315 4 gusting 11 13.9
2014-Oct-24 07:54 317 6 gusting 11 13.9
2014-Oct-24 07:49 285 4 gusting 11 13.9
2014-Oct-24 07:44 288 6 gusting 11 13.9
2014-Oct-24 07:39 279 6 gusting 10 13.9
2014-Oct-24 07:34 325 5 gusting 11 13.9
2014-Oct-24 07:29 305 6 gusting 8 13.9
2014-Oct-24 07:24 271 5 gusting 10 13.9
2014-Oct-24 07:19 284 5 gusting 10 13.9
2014-Oct-24 07:14 284 5 gusting 7 13.9
2014-Oct-24 07:09 316 4 gusting 8 13.3
2014-Oct-24 07:04 331 4 gusting 9 13.3